Regional Weather Roundup
Issued by NWS

Home | Current Version | Previous Version | Graphics & Text | Print | Product List | Glossary On
Versions: 1 2 3 4 5 6 7 8 9 10 11 12 13 14 15 16 17 18 19 20 21 22 23 24 25 26 27 28 29 30 31 32 33 34 35 36 37 38 39 40 41 42 43 44 45 46 47 48 49 50
000
ASUS43 KMPX 191101
RWRMN
WEATHER ROUNDUP FOR MINNESOTA
NATIONAL WEATHER SERVICE TWIN CITIES/CHANHASSEN MN
500 AM CST FRI JAN 19 2018


NOTE: "FAIR" INDICATES FEW OR NO CLOUDS BELOW 12,000 FEET WITH NO
SIGNIFICANT WEATHER AND/OR OBSTRUCTIONS TO VISIBILITY. N/A MEANS
CURRENT SKY AND/OR WEATHER CONDITIONS ARE NOT AVAILABLE.

MNZ060>063-068>070-191200-
   Twin Cities Metro

CITY           SKY/WX    TMP DP  RH WIND       PRES   REMARKS
TWIN CITIES    CLOUDY    31  27  85 S7        29.66F WCI  24
ST PAUL        FAIR      27  24  89 SE9       29.67F FOG     WCI  18
CRYSTAL        FAIR      30  24  78 S6        29.64F WCI  24
BLAINE         FAIR      34  28  80 S9        29.64F WCI  26
LAKEVILLE      FAIR      25  23  93 SE3       29.66F
EDEN PRAIRIE   FAIR      30  25  81 S8        29.65F WCI  22
SOUTH ST PAUL  FAIR      28  24  85 S3        29.67F
LAKE ELMO      FAIR      28  27  93 S5        29.67F WCI  23
$$
MNZ001>005-007-008-013>017-022>024-027-028-191200-
   Northwest Minnesota

CITY           SKY/WX    TMP DP  RH WIND       PRES   REMARKS
BEMIDJI        FAIR      28  23  82 NW3       29.49S
HALLOCK        FAIR      28  27  93 S13       29.41F WCI  18
ROSEAU         FAIR      34  28  80 SW13      29.41F WCI  25
WARROAD        FAIR      34  28  80 SW14G20   29.40R WCI  24
CROOKSTON      FAIR      28  27  93 S12       29.49F WCI  18
FOSSTON        FAIR      28  25  86 S12       29.50F WCI  18
DETROIT LAKES  FAIR      32  27  80 S3        29.52F
MOORHEAD       FAIR      30  25  80 S9        29.53F WCI  22
PARK RAPIDS    FAIR      32  25  75 SW8       29.50F WCI  25
MAHNOMEN       FAIR      30  26  83 S12       29.50F WCI  21
$$
MNZ006-009>011-018-025>026-191200-
   North Central Minnesota

CITY           SKY/WX    TMP DP  RH WIND       PRES   REMARKS
BAUDETTE       FAIR      32  26  78 SW9       29.38F WCI  24
FLAG ISLAND    FAIR      28  25  86 S9        29.36F WCI  20
INTL FALLS     CLOUDY    29  22  75 SW6       29.42F WCI  23
WASKISH        FAIR      34  27  75 SW8       29.46S WCI  27
BIG FORK       FAIR      30  25  80 S5        29.48S WCI  25
LONGVILLE      FAIR      32  25  74 S6        29.48F WCI  26
GRAND RAPIDS   FAIR      29  23  78 CALM      29.53F
CRANE LAKE     FAIR      25  23  93 S3        29.49F
ORR            FAIR      25  21  86 SE3       29.46F
COOK           CLOUDY    28  23  80 CALM      29.51R
WALKER         FAIR      35  25  65 NW9       29.49S WCI  28
$$
MNZ012-019>021-037-191200-
   Northeast Minnesota

CITY           SKY/WX    TMP DP  RH WIND       PRES   REMARKS
DULUTH         FAIR      29  24  82 SW10      29.52F WCI  20
ELY            FAIR      28  23  80 W3        29.49S
HIBBING        FAIR      24  21  88 CALM      29.51F
EVELETH        FAIR      22  19  88 CALM      29.52F
DULUTH HARBOR  FAIR      27  25  93 SW7       29.58F WCI  19
TWO HARBORS    FAIR      23  18  80 CALM      29.53F
SILVER BAY     FAIR      18  18 100 CALM      29.52F
GRAND MARAIS     N/A     30  26  85 W3        29.55F
G MARAIS ARPRT FOG       25  21  86 S3        29.50F VSB 1
$$
MNZ029>031-032-039>041-046>048-054>057-064-191200-
   West Central Minnesota

CITY           SKY/WX    TMP DP  RH WIND       PRES   REMARKS
FERGUS FALLS   FAIR      28  23  80 SE7       29.54F WCI  21
WHEATON        CLOUDY    28  25  86 SE9       29.56F WCI  20
MORRIS         CLOUDY    28  25  86 SE9       29.56F WCI  20
ALEXANDRIA     FAIR      33  26  75 SW13      29.57F WCI  24
ELBOW LAKE     FAIR      28  25  87 SE9       29.56F WCI  20
WADENA         FAIR      28  23  80 CALM      29.53F
GLENWOOD       FAIR      28  25  86 S6        29.58F WCI  22
APPLETON       CLOUDY    36  27  69 S8        29.57F
BENSON         CLOUDY    32  27  80 S6        29.60F WCI  26
ORTONVILLE     CLOUDY    32  27  80 SE8       29.55F WCI  25
MADISON        CLOUDY    36  28  75 SE6       29.57F
WILLMAR        FAIR      27  25  93 SE3       29.63F
$$
MNZ033>034-036-042>043-049>051-058-059-191200-
   Central Minnesota

CITY           SKY/WX    TMP DP  RH WIND       PRES   REMARKS
ST CLOUD       FAIR      27  25  92 MISG      29.61F
SAUK CENTRE      N/A     28  24  87 S6        29.59F WCI  21
PAYNESVILLE    FAIR      31  28  88 CALM      29.61F
AITKIN         FAIR      30  25  80 S5        29.53F WCI  25
PINE RIVER     FAIR      25  21  86 CALM      29.56F
BRAINERD       FAIR      32  24  72 S9        29.55F WCI  24
STAPLES        FAIR      28  23  80 CALM      29.54F
LONG PRAIRIE   FAIR      30  27  86 S9        29.57F WCI  22
LITTLE FALLS   FAIR      28  21  74 S5        29.59  WCI  23
LITCHFIELD     FAIR      32  28  86 CALM      29.62F
BUFFALO        FAIR      30  26  86 S6        29.64F WCI  24
MAPLE LAKE     FAIR      32  28  88 MISG      29.63F
HUTCHINSON     FAIR      29  27  93 SE3       29.64F
$$
MNZ037-044-045-052-053-191200-
   East Central Minnesota

CITY           SKY/WX    TMP DP  RH WIND       PRES   REMARKS
PRINCETON      FAIR      30  27  86 S3        29.61F
MORA           FAIR      27  25  93 CALM      29.62F
CAMBRIDGE      FAIR      30  27  86 S8        29.62F WCI  23
RUSH CITY      FAIR      28  25  91 S6        29.62F WCI  21
MOOSE LAKE     FAIR      28  27  93 SW7       29.56F WCI  21
HINCKLEY       FAIR      28  27  93 S3        29.61S
CLOQUET        FAIR      28  25  86 S10       29.54F WCI  19
MCGREGOR       FAIR      32  27  80 S6        29.54F WCI  26
$$
MNZ071>073-080-081-089-090-097-098-191200-
   Southwest Minnesota

CITY           SKY/WX    TMP DP  RH WIND       PRES   REMARKS
MONTEVIDEO     CLOUDY    30  27  86 SW5       29.59F WCI  25
GRANITE FALLS  CLOUDY    34  29  83 SE6       29.62F WCI  29
CANBY          CLOUDY    42  27  54 SW12      29.58F
MARSHALL       CLOUDY    35  26  69 S10       29.60F WCI  27
REDWOOD FALLS  CLOUDY    31  27  85 S6        29.62F WCI  25
OLIVIA         CLOUDY    30  27  86 S7        29.61F WCI  23
PIPESTONE      CLOUDY    27  23  86 S8        29.63F WCI  18
WINDOM         CLOUDY    28  16  59 S5        29.65F WCI  23
WORTHINGTON    CLOUDY    29  25  85 S7        29.65F WCI  22
JACKSON        CLOUDY    28  25  86 SW6       29.67F WCI  22
SLAYTON        MOCLDY    27  25  91 S6        29.64F WCI  21
$$
MNZ065>067-074>077-082>085-091>093-191200-
   South Central Minnesota

CITY           SKY/WX    TMP DP  RH WIND       PRES   REMARKS
MANKATO        FAIR      27  24  89 S7        29.68F WCI  19
NEW ULM        CLOUDY    28  25  86 S5        29.65F WCI  23
ST JAMES       CLOUDY    30  27  86 S6        29.66F WCI  24
FAIRMONT       CLOUDY    28  25  88 SE3       29.69F
FARIBAULT      FAIR      27  23  86 S6        29.69S WCI  20
OWATONNA       FAIR      28  25  86 S6        29.69S WCI  22
WASECA         FAIR      28  23  80 S9        29.70F WCI  20
ALBERT LEA     FAIR      28  21  74 CALM      29.70F
$$
MNZ078>079-086>088-094>096-191200-
   Southeast Minnesota

CITY           SKY/WX    TMP DP  RH WIND       PRES   REMARKS
ROCHESTER      FAIR      25  21  85 S15       29.70F WCI  13
RED WING       FAIR      27  19  74 SE5       29.70S WCI  21
STANTON        FAIR      31  25  77 SW10      29.68S WCI  22
DODGE CENTER   FAIR      25  21  86 S12       29.69F WCI  14
WINONA         FAIR      21  19  93 SE6       29.72F WCI  14
PRESTON        FAIR      24  20  82 S8        29.73F WCI  16
$$
ABBREVIATIONS USED IN REMARKS
   TC - TEMPERATURES IN CELSIUS
  WCI - WIND CHILL INDEX
   HX - HEAT INDEX
  VSB - VISIBILITY
$$




USA.gov is the U.S. government's official web portal to all federal, state and local government web resources and services.